User: anonymous
Location: Radford
(37.1320°N, 80.5770°W)
Time: 18:53:34
(UTC-04:00)
Language:

Okean 1-7 - Orbit

View from above orbital plane
View from above orbital plane
View from above satellite
View from above satellite

Ground track
Ground track

The orbit data is extracted from the following two-line orbital elements,

1 23317U 94066A   14209.50380693  .00000688  00000-0  76588-4 0  6000
2 23317 082.5378 029.1892 0019359 325.1342 090.1148 14.85596520 69248
Epoch (UTC): 28 July 2014 12:05:28
Eccentricity: 0.0019359
inclination: 82.5378°
perigee height: 598 km
apogee height: 625 km
right ascension of ascending node: 29.1892°
argument of perigee: 325.1342°
revolutions per day: 14.85596520
mean anomaly at epoch: 90.1148°
orbit number at epoch: 6924

The dashed part of the orbit path shows where the satellite is in the earth's shadow,  

DLR